Terminal Aerodrome Forecast
Issued by NWS Mt. Holly, NJ

Home | Current Version | Previous Version | Text Only | Print | Product List | Glossary On
Versions: 1 2 3 4 5 6 7 8 9 10 11 12 13 14 15 16 17 18 19 20 21 22 23 24 25 26 27 28 29 30 31 32 33 34 35 36 37 38 39 40 41 42 43 44 45 46 47 48 49 50
000
FTUS41 KPHI 061126
TAFABE
TAF
KABE 061126Z 0612/0712 04003KT P6SM SCT060 BKN150
      TEMPO 0612/0613 6SM BR
     FM061600 13007KT P6SM VCSH OVC070
      TEMPO 0618/0622 -SHRA
     FM070000 14005KT P6SM VCSH BKN040
     FM070500 14003KT 4SM BR SCT006 BKN150
     FM070700 16003KT 2SM BR OVC006=

USA.gov is the U.S. government's official web portal to all federal, state and local government web resources and services.